Temp
23 22 21 21 21 21 20 20 21 21 21 20 20 20 20 20 19 20 20 19 19 19 19 19 20 19 19 19 19 19 19 19 19 19 20 20 20 20 20 21 22 21 20
24 23 21 21 21 20 20 20 20 20 20 20 20 19 19 19 19 19 19 19 19 19 19 19 19 19 19 19 19 18 19 19 20 20 21 21 20 20 19 20 21 20 20
24 23 21 21 21 21 20 20 20 20 20 19 19 19 19 19 19 19 19 19 19 19 19 19 18 19 18 18 18 18 19 20 20 20 21 21 20 19 19 20 20 20 20
24 24 23 21 21 21 20 20 20 20 20 20 19 19 19 19 19 19 19 19 19 19 18 18 18 18 18 18 18 18 19 19 20 21 20 20 21 19 19 19 19 20 20
24 23 23 21 21 21 20 20 20 20 19 19 19 19 19 19 19 19 19 19 19 18 18 18 18 18 17 17 17 18 18 18 20 21 20 19 20 19 19 19 19 19 19
24 23 21 21 21 21 20 20 20 20 19 19 19 19 19 19 19 19 19 19 19 18 18 18 17 17 17 17 17 18 18 19 20 20 21 20 19 19 19 18 18 18 18
24 24 22 21 20 20 20 20 19 19 19 19 19 18 19 19 19 19 19 19 18 18 18 17 17 17 17 17 17 18 18 19 20 19 19 20 19 18 18 18 18 18 18
24 24 23 20 20 20 20 19 19 19 19 19 19 19 19 19 19 19 18 18 18 18 17 17 17 17 16 16 16 17 18 19 20 19 19 18 18 18 18 18 18 18 18
24 23 22 21 20 20 20 20 20 20 19 19 19 19 19 18 18 18 18 18 18 17 17 17 16 16 16 16 16 16 17 19 20 20 20 18 18 17 17 17 17 18 18
24 24 23 22 22 21 20 19 19 19 18 19 19 19 19 18 18 18 18 18 18 17 17 16 16 16 16 16 16 16 18 19 19 19 19 17 17 17 17 17 17 17 17
24 24 23 22 22 22 22 20 19 19 19 19 19 19 19 19 18 19 19 18 17 17 16 16 16 15 15 15 16 17 19 19 19 19 18 16 16 16 16 16 16 16 16
23 23 23 23 23 23 22 21 21 20 19 19 20 20 19 19 20 19 18 17 17 16 16 15 15 16 18 18 17 18 19 19 19 18 17 16 16 16 16 15 15 15 15
23 23 23 23 22 22 22 22 21 21 19 19 20 20 20 20 18 19 18 18 18 17 17 16 17 18 18 18 18 19 19 19 19 18 16 16 16 16 15 15 15 15 15
23 22 23 22 22 22 22 22 21 20 19 20 20 20 19 19 19 19 19 19 18 18 18 18 17 17 18 18 19 19 19 19 19 17 16 16 16 16 15 15 15 15 15
23 22 21 21 21 22 21 21 19 18 19 20 20 19 19 19 19 19 18 18 18 18 18 18 18 18 18 18 18 19 19 18 18 17 16 15 15 15 15 15 15 15 14
23 21 20 21 21 22 21 20 18 18 18 19 19 19 19 19 19 18 18 18 18 18 18 18 18 18 18 18 18 18 18 17 17 17 16 15 15 15 15 15 15 15 15
22 21 21 21 21 21 21 20 18 18 18 18 18 18 18 18 18 18 18 18 18 18 18 18 18 18 17 17 17 17 17 17 17 16 16 16 15 14 14 14 15 15 15
21 21 21 20 20 21 20 19 18 18 18 18 18 18 18 17 18 18 18 18 17 17 17 17 17 17 17 17 17 17 17 17 17 16 15 15 15 15 15 14 14 14 14
20 19 19 20 20 20 19 18 18 18 18 18 19 18 17 17 17 18 18 17 17 17 17 17 17 17 17 17 17 17 17 16 16 16 16 14 14 14 14 14 14 14 13
21 20 19 19 19 19 18 17 17 17 18 18 19 18 18 17 16 17 17 17 17 16 17 17 17 17 18 17 17 17 16 16 15 16 16 15 14 13 14 13 14 13 14
19 19 19 18 19 18 17 16 16 16 17 17 18 17 17 16 17 16 16 16 16 17 17 17 17 16 16 17 17 16 16 16 16 15 15 15 14 14 13 13 14 14 13
20 18 18 18 18 18 16 17 16 16 15 16 16 16 15 16 17 16 15 15 16 17 16 16 16 17 16 16 18 18 19 17 16 15 14 15 15 14 14 13 14 13 12
20 19 19 18 18 17 16 16 16 15 14 13 13 14 15 16 15 15 15 15 15 15 15 15 15 16 16 14 15 17 18 19 18 15 15 15 14 14 14 13 13 12 12
20 19 19 18 18 17 16 16 15 15 13 13 14 14 14 14 15 14 13 13 13 13 16 16 15 15 15 16 15 15 16 17 19 18 15 15 14 14 13 12 12 12 11
20 18 18 17 16 16 16 16 15 15 14 12 13 12 11 11 13 15 12 12 13 12 13 14 15 15 15 16 15 15 15 15 17 17 18 16 13 12 13 12 12 11 11
20 18 17 17 16 16 15 15 15 14 12 11 9 9 10 10 10 11 11 11 12 12 12 13 14 14 15 15 15 15 15 16 16 16 15 16 15 14 12 11 11 11 11
Height
783 786 789 793 797 800 802 805 806 809 811 812 814 815 816 817 817 817 818 818 818 817 817 817 816 816 815 815 814 812 811 810 808 808 807 806 805 803 802 801 801 800 798
782 788 790 794 798 800 803 805 807 809 811 813 815 816 817 818 819 819 819 819 819 820 820 820 819 819 818 817 816 815 814 813 812 811 811 809 809 807 806 805 804 804 803
783 788 793 795 798 802 804 806 808 810 812 814 816 817 818 819 820 821 822 821 821 821 821 821 822 822 821 821 819 818 817 816 816 815 815 814 813 811 810 809 808 807 807
783 788 793 797 799 802 805 807 809 811 813 815 817 819 820 820 822 822 823 824 824 824 824 823 823 823 824 824 823 822 820 819 819 819 819 818 817 816 814 813 812 812 811
784 789 793 797 800 802 805 808 810 812 814 816 818 819 821 822 823 824 825 825 826 827 827 827 827 826 825 825 826 825 824 823 822 822 822 822 821 820 818 817 816 815 814
785 790 794 798 800 804 806 808 811 813 816 817 819 820 821 823 824 825 826 828 828 829 831 830 830 830 830 829 827 828 828 828 827 826 826 826 825 824 823 821 820 819 819
788 790 795 798 801 804 807 809 812 815 817 819 820 821 822 824 825 826 827 829 830 830 832 833 833 833 832 832 832 831 830 831 831 830 831 831 830 829 828 826 824 824 823
790 792 795 799 802 805 807 810 813 815 818 820 822 822 824 825 826 828 829 830 832 833 834 835 835 835 836 835 835 834 834 835 834 834 835 835 835 834 832 831 829 828 828
790 794 796 800 803 806 808 811 814 816 819 821 823 824 825 827 828 830 831 833 834 835 836 837 837 837 837 838 838 838 838 837 838 838 838 840 839 838 837 836 834 833 832
790 793 796 800 803 807 810 812 814 817 819 821 823 825 826 828 830 833 834 835 836 836 838 839 839 839 840 840 840 840 841 842 842 842 843 844 843 842 841 840 839 838 838
787 791 795 799 802 806 809 813 815 818 820 822 824 826 828 831 833 834 835 837 838 839 839 841 841 842 841 842 843 844 844 844 846 846 848 848 846 845 845 844 844 843 842
785 789 793 797 801 805 809 812 815 817 819 821 824 827 829 832 834 835 838 839 841 840 842 843 844 844 845 846 847 846 847 848 849 850 853 852 850 849 848 847 847 847 846
785 789 792 796 800 805 807 809 812 815 818 820 823 826 828 832 835 837 839 841 842 842 846 846 847 848 848 848 849 849 849 851 852 855 857 856 854 853 852 851 851 850 850
781 786 790 795 798 803 806 808 811 813 817 819 823 827 828 832 835 836 838 841 842 844 846 848 849 850 850 850 853 852 852 852 853 857 859 859 858 857 855 855 855 854 853
780 784 790 792 796 800 804 807 810 811 815 819 822 826 828 831 834 836 838 841 843 844 847 849 851 853 853 854 855 855 856 856 856 859 860 861 860 860 859 858 858 857 857
778 784 788 791 794 797 802 806 808 811 815 819 822 825 828 831 834 837 839 842 844 846 848 849 852 854 856 856 858 859 859 859 860 861 863 863 863 862 863 862 862 862 861
776 781 784 788 793 795 801 805 807 810 813 818 821 825 827 831 834 837 839 842 845 847 849 851 853 854 856 857 859 861 862 861 862 863 864 866 866 865 864 864 864 864 864
773 776 782 786 790 794 799 803 806 808 812 816 820 824 826 830 834 836 839 841 844 848 850 851 853 855 856 859 861 863 862 864 863 864 866 866 866 868 865 865 865 866 867
769 776 778 786 788 791 797 801 805 809 810 814 818 823 825 829 833 836 838 841 844 848 850 852 854 855 857 859 861 863 865 865 864 865 864 867 867 868 869 867 867 866 867
764 772 777 786 786 790 795 799 803 808 811 811 816 821 824 828 831 837 839 842 845 847 850 852 853 854 856 858 861 863 865 865 865 866 866 866 866 866 868 868 869 868 866
763 767 773 777 782 787 792 796 799 805 809 811 815 820 823 827 829 833 839 841 844 847 849 852 853 854 855 858 860 863 864 865 865 865 866 866 866 867 867 868 868 868 867
761 764 768 773 779 785 789 795 799 800 807 812 813 818 822 825 829 833 838 841 845 846 849 852 855 853 855 857 857 857 859 863 862 863 864 864 865 865 866 866 866 867 867
758 761 766 770 775 780 786 791 795 799 805 807 810 814 820 824 829 832 836 840 845 846 848 851 854 853 853 856 857 858 857 856 858 861 862 863 865 864 865 866 867 866 866
753 759 762 765 772 776 781 786 792 793 799 802 804 809 815 820 824 827 834 839 843 845 846 849 854 854 853 853 856 857 856 856 854 856 860 862 862 862 862 863 865 865 865
751 757 763 768 770 777 777 784 790 795 796 800 801 805 810 815 819 817 831 837 839 842 846 849 853 852 853 853 852 855 855 855 855 857 851 857 862 860 861 861 862 863 864
750 756 761 766 771 768 782 786 791 793 794 799 801 804 806 809 815 822 824 834 841 841 847 850 850 850 851 852 852 853 852 853 852 856 855 852 853 856 859 858 859 859 859
Wind_Speed
16 23 25 22 22 22 21 21 22 21 18 16 16 15 14 14 15 15 14 14 14 16 18 19 17 17 18 18 18 19 20 22 23 24 23 23 23 23 22 23 24 24 26
22 23 25 26 24 23 22 21 20 20 18 17 17 15 14 13 13 14 14 13 13 17 16 17 17 17 18 18 18 19 19 21 24 25 21 22 23 24 23 22 23 24 25
26 24 24 26 24 22 21 21 20 20 18 18 16 14 13 13 13 14 14 14 15 17 17 18 18 18 18 18 18 18 19 22 24 24 23 21 20 23 22 22 23 24 23
27 25 23 25 24 23 22 20 20 19 19 18 16 13 12 13 12 13 14 14 14 17 18 18 18 18 17 17 18 18 19 19 23 20 21 22 22 22 22 22 22 22 23
24 24 23 25 23 23 21 21 20 19 19 18 16 13 11 12 12 12 15 15 15 17 16 17 17 18 18 17 17 18 20 19 21 19 21 24 24 24 24 23 22 22 24
23 22 22 24 22 22 21 20 20 19 19 16 14 13 12 12 12 12 16 14 15 17 16 16 17 17 16 17 17 17 20 20 20 19 19 21 23 25 26 25 25 25 27
21 21 21 23 22 21 20 20 19 19 17 14 14 13 14 13 11 15 17 14 16 17 16 15 15 16 16 16 16 17 19 20 19 22 22 20 21 24 25 26 27 26 26
20 20 21 22 22 21 21 20 20 17 15 15 14 15 15 13 15 15 18 17 16 17 15 15 15 15 15 16 16 16 19 17 18 20 20 20 23 23 25 27 28 28 26
19 20 20 20 20 21 20 21 19 16 16 16 15 15 17 15 16 16 17 15 15 16 15 14 14 15 15 15 16 17 21 19 18 18 18 18 20 22 24 24 27 28 29
20 20 20 21 21 19 17 18 17 17 17 20 18 17 20 17 15 13 14 14 14 15 14 14 14 15 15 16 16 19 22 19 18 19 19 18 21 21 22 24 24 26 26
22 22 22 21 20 19 17 17 17 18 19 19 19 17 16 13 13 13 13 16 15 15 14 13 15 16 17 17 18 20 17 17 17 18 18 20 22 22 22 22 23 24 24
23 24 23 21 18 18 17 17 17 18 19 19 19 17 13 13 12 12 15 16 15 15 14 14 15 17 15 15 15 16 16 17 18 19 19 20 21 22 23 24 24 24 24
24 23 22 21 19 19 18 19 18 19 17 21 18 16 14 13 14 14 15 15 14 14 11 12 12 11 13 13 13 15 16 16 18 18 19 19 20 21 22 23 23 24 24
28 26 24 21 20 20 19 19 19 18 19 17 16 15 15 14 15 15 14 14 14 11 13 11 11 12 13 14 13 14 14 15 16 16 17 18 19 20 22 22 23 23 23
25 26 25 23 22 22 20 19 17 20 17 16 16 14 14 14 15 15 14 13 13 14 14 13 13 12 13 12 12 12 13 14 15 14 15 18 18 19 20 20 21 21 21
26 26 26 25 23 23 22 20 18 21 18 15 14 14 14 14 14 14 14 13 14 14 15 15 14 13 12 11 11 10 11 12 12 13 13 15 18 17 18 18 19 19 20
25 26 27 25 23 22 22 21 20 25 21 15 13 15 15 14 15 14 15 15 15 15 15 15 13 13 12 11 11 10 10 11 11 11 10 11 12 16 16 15 15 16 16
23 25 26 25 24 23 22 21 19 25 22 16 14 15 15 15 15 15 16 17 16 16 15 15 14 13 12 10 9 8 9 8 9 9 8 8 8 7 9 11 12 12 12
25 23 23 25 26 25 21 20 18 21 21 18 16 15 15 16 16 16 16 16 17 15 14 14 12 11 11 9 8 7 6 6 6 7 7 6 5 5 5 6 7 8 9
23 25 26 27 23 23 22 23 20 17 18 17 17 16 15 16 16 14 15 16 16 14 14 13 13 11 10 9 8 6 5 5 5 5 5 5 4 4 2 2 3 4 5
21 24 26 25 24 24 24 24 22 16 15 15 17 15 16 16 21 20 14 16 16 16 15 14 13 12 10 9 8 5 4 4 5 6 6 5 4 3 2 1 0 1 3
20 24 26 26 25 27 24 26 17 19 13 12 14 16 15 18 22 19 16 16 14 14 14 14 12 12 7 10 7 6 4 6 6 7 7 7 7 5 5 4 2 1 1
22 25 26 26 28 28 27 28 21 18 15 13 14 17 17 18 19 18 16 13 12 13 14 14 13 13 10 10 8 4 2 5 6 6 7 7 7 7 6 4 4 2 1
21 23 26 29 28 28 28 28 21 19 11 13 23 21 23 23 23 19 10 8 8 12 15 17 16 12 9 10 9 10 8 5 4 4 7 7 8 8 8 7 6 5 5
17 20 20 20 20 21 24 24 22 17 14 15 22 25 24 26 31 34 22 9 10 9 11 15 16 15 14 10 12 9 10 8 9 8 6 7 8 9 9 9 8 8 8
13 16 19 19 20 20 24 20 18 13 13 16 18 21 26 27 27 31 33 19 23 20 20 24 20 15 13 13 12 12 10 7 10 9 6 11 10 7 10 10 10 10 10
Wind_Direction
170 166 162 166 163 158 154 151 148 146 145 136 129 123 120 115 114 111 106 94 84 85 90 85 80 76 72 70 67 66 65 62 65 64 63 63 62 62 65 70 64 62 59
160 164 163 164 161 159 156 154 150 148 145 139 132 126 123 121 120 113 110 101 87 97 85 80 80 80 76 73 70 68 71 69 67 67 60 56 59 61 62 70 70 62 60
158 161 162 162 162 159 158 157 153 152 148 140 134 132 129 128 127 125 116 109 97 97 91 85 82 81 76 74 72 70 78 77 69 64 62 61 58 60 62 64 66 66 63
159 161 165 168 164 162 161 156 156 153 148 142 139 138 135 133 136 131 122 111 103 104 97 92 88 86 82 78 76 73 78 79 74 68 63 60 60 59 62 64 65 65 66
159 164 168 169 166 164 160 158 158 154 150 142 142 139 139 136 139 139 133 117 112 108 99 92 89 87 86 83 79 80 74 71 76 73 67 63 62 60 62 64 65 66 67
157 160 169 168 168 166 161 160 157 155 144 144 144 144 141 139 144 145 126 116 119 110 101 96 90 84 82 82 86 92 82 74 74 74 70 64 61 60 63 65 66 70 71
164 164 167 171 168 165 163 159 157 152 152 151 147 146 141 141 143 138 126 121 126 116 110 98 91 86 84 81 82 94 91 85 78 72 70 69 65 62 63 65 66 68 70
167 168 170 174 170 167 162 159 154 155 155 153 152 147 144 139 135 132 129 121 125 117 110 103 95 91 86 85 83 91 91 85 83 77 73 68 64 63 63 63 64 66 68
171 170 169 171 171 170 166 160 167 176 161 158 157 151 150 136 127 127 129 124 122 117 111 105 100 98 96 91 88 88 92 86 83 79 77 72 71 66 66 65 63 65 66
175 178 175 173 171 171 173 172 178 173 168 165 156 156 148 139 131 136 135 132 130 121 114 107 105 106 104 102 99 95 85 84 83 81 79 79 72 71 69 65 66 63 66
179 184 179 175 172 175 179 183 179 175 175 174 164 160 144 146 142 137 146 138 133 122 115 113 112 111 108 109 108 94 92 88 85 85 84 83 81 78 76 72 68 66 64
185 188 185 185 182 184 182 181 179 179 176 170 161 159 159 152 155 150 144 139 136 124 117 119 122 115 107 108 104 92 95 93 90 88 88 86 84 82 79 77 74 71 68
192 188 191 190 187 185 182 178 179 180 176 166 162 165 159 160 154 150 146 142 144 128 127 119 114 119 118 117 111 106 101 97 93 90 89 85 82 81 80 77 75 72 70
193 191 193 192 187 189 185 183 180 181 171 166 169 172 163 164 167 163 159 155 152 146 139 132 128 124 120 116 114 111 108 106 104 99 94 88 86 83 82 79 77 74 70
201 193 196 192 190 189 187 185 184 183 172 171 173 176 173 174 173 169 164 160 157 148 144 137 130 125 119 117 115 112 108 106 107 104 99 94 91 88 84 82 78 75 71
202 199 196 196 197 189 189 186 180 183 174 174 178 179 179 178 176 172 166 161 155 152 150 144 140 133 122 117 113 114 113 111 110 111 108 102 97 90 85 78 75 72 69
204 197 201 199 201 193 193 190 179 183 174 179 182 182 178 180 178 173 169 162 159 157 152 147 145 139 134 130 123 121 117 117 115 114 118 111 98 103 93 84 78 72 68
206 203 198 197 199 195 195 195 183 186 177 182 182 181 181 180 177 171 169 165 162 161 159 156 155 150 143 139 137 133 127 128 124 124 123 124 123 104 88 92 81 71 64
202 198 202 200 197 192 194 194 189 189 183 181 180 183 180 179 177 176 171 170 166 166 166 165 160 157 154 152 152 149 147 144 140 143 144 138 132 109 97 79 70 67 62
201 196 195 198 195 191 195 196 182 187 186 176 182 185 178 179 176 179 173 170 172 171 176 175 170 166 164 160 158 159 169 173 174 177 173 168 173 155 127 93 50 39 33
203 198 193 193 192 187 195 190 178 180 180 179 179 182 178 180 185 185 177 177 179 184 185 184 178 166 158 165 156 171 172 193 200 203 205 203 203 203 211 235 81 61 5
204 197 193 193 193 194 191 197 191 185 178 180 176 180 186 189 192 190 192 184 193 188 187 187 186 174 176 184 207 199 199 199 204 205 210 212 216 209 208 201 194 135 41
208 201 199 196 194 191 188 193 192 188 180 173 178 184 186 190 190 192 197 193 206 196 195 195 201 195 183 194 201 215 191 241 191 206 209 210 215 216 217 214 213 212 285
204 201 200 194 194 192 185 184 190 182 178 193 187 189 190 191 184 177 172 201 216 223 210 213 217 212 202 200 206 230 244 280 234 195 220 226 223 219 214 214 223 244 268
196 192 194 190 184 174 182 198 197 194 199 198 193 194 193 191 196 196 202 217 219 245 247 239 229 216 219 222 215 212 224 236 248 267 262 192 235 226 224 229 238 253 273
182 176 177 178 172 172 177 182 195 194 172 176 176 179 188 188 186 193 186 204 203 204 239 245 237 231 227 230 228 230 226 230 236 247 261 253 250 219 233 238 246 258 271